This is the latest recevied weather packets stored in our database for station/object W7TRD. If no packets are shown the sender has not sent any weather packets the latest 10 day(s).
| Time | Temp. | Humidity | Pressure | Rain* | Wind** | Luminosity | Snow |
|---|---|---|---|---|---|---|---|
| 1777841285 | 31.67° C | 35% | 1010.4 hPa | 0 mm | - | 728 W/m² | - |
| 1777840983 | 31.67° C | 36% | 1010.6 hPa | 0 mm | - | 730 W/m² | - |
| 1777840680 | 32.22° C | 35% | 1010.7 hPa | 0 mm | - | 732 W/m² | - |
| 1777840377 | 32.22° C | 40% | 1010.6 hPa | 0 mm | - | 735 W/m² | - |
| 1777840074 | 31.11° C | 38% | 1010.8 hPa | 0 mm | - | 737 W/m² | - |
| 1777839772 | 30.56° C | 38% | 1010.8 hPa | 0 mm | - | 740 W/m² | - |
| 1777839470 | 30.56° C | 39% | 1011 hPa | 0 mm | - | 740 W/m² | - |
| 1777839167 | 30.56° C | 40% | 1010.8 hPa | 0 mm | - | 742 W/m² | - |
| 1777838864 | 30° C | 42% | 1011 hPa | 0 mm | - | 742 W/m² | - |
| 1777838560 | 30.56° C | 42% | 1011 hPa | 0 mm | - | 744 W/m² | - |
| 1777838257 | 30.56° C | 42% | 1011.1 hPa | 0 mm | - | 743 W/m² | - |
| 1777837954 | 30° C | 43% | 1011.2 hPa | 0 mm | - | 744 W/m² | - |
| 1777837652 | 30° C | 44% | 1011.4 hPa | 0 mm | - | 743 W/m² | - |
| 1777837347 | 29.44° C | 45% | 1011.3 hPa | 0 mm | - | 741 W/m² | - |
| 1777837043 | 29.44° C | 43% | 1011.3 hPa | 0 mm | - | 741 W/m² | - |
| 1777836739 | 28.89° C | 45% | 1011.3 hPa | 0 mm | - | 738 W/m² | - |
| 1777836435 | 28.33° C | 46% | 1011.4 hPa | 0 mm | - | 737 W/m² | - |
| 1777836130 | 28.89° C | 43% | 1011.4 hPa | 0 mm | - | 733 W/m² | - |
| 1777835827 | 28.33° C | 45% | 1011.6 hPa | 0 mm | - | 730 W/m² | - |
| 1777835525 | 28.33° C | 45% | 1011.7 hPa | 0 mm | - | 728 W/m² | - |
| 1777835221 | 28.33° C | 46% | 1011.8 hPa | 0 mm | - | 723 W/m² | - |
| 1777834918 | 27.78° C | 46% | 1011.8 hPa | 0 mm | - | 720 W/m² | - |
| 1777834615 | 27.78° C | 48% | 1011.8 hPa | 0 mm | - | 715 W/m² | - |
| 1777834310 | 27.22° C | 49% | 1011.7 hPa | 0 mm | - | 711 W/m² | - |
| 1777834005 | 27.78° C | 48% | 1011.8 hPa | 0 mm | - | 704 W/m² | - |
* Rain latest hour (hover to see other rain measurements)
** Current wind speed in m/s (hover to see current wind gust speed)